Wind_Speed
53 53 55 57 59 60 61 61 60 60 59 60 61 62 63 64 65 66 66 66 66 66 65 65 65 64 63 62 62 61 61 61 60 59 58 57 57 57 56 56 57 58
57 55 55 55 57 59 61 63 63 63 63 62 62 63 65 66 66 67 67 67 67 67 67 67 66 65 64 64 63 62 62 62 61 60 60 60 59 58 58 58 58 59
61 59 58 59 59 61 61 63 65 66 67 66 65 65 66 67 68 68 68 68 68 68 68 67 66 66 65 64 63 63 63 62 61 62 62 62 61 60 60 60 60 60
63 63 62 62 63 64 63 63 66 68 70 70 68 67 67 68 69 69 69 69 69 69 69 68 67 67 66 65 65 64 64 63 62 63 63 63 62 61 61 61 61 61
65 65 64 63 63 63 64 64 66 69 71 72 71 69 68 68 69 69 69 70 70 70 70 70 69 68 68 67 66 66 65 65 65 64 63 62 62 62 62 62 62 62
63 63 63 63 63 63 64 65 67 69 71 72 71 69 67 67 67 67 68 69 69 70 70 69 69 69 69 68 68 68 68 67 67 66 64 64 64 64 64 64 64 63
62 62 62 63 63 63 65 66 69 71 71 70 69 68 66 66 65 65 66 67 67 67 67 67 67 67 67 68 68 69 69 69 69 68 67 66 66 66 65 65 65 65
63 63 63 63 64 64 66 67 69 72 73 71 69 67 65 65 64 64 64 65 66 66 66 66 65 65 65 65 66 68 69 70 70 70 69 69 68 67 67 67 66 66
63 65 65 65 66 66 67 68 70 73 75 74 72 70 67 65 64 64 65 65 66 66 67 67 67 66 66 66 66 67 69 70 71 71 71 70 69 69 68 69 68 68
66 67 68 69 69 69 70 71 72 75 77 77 76 74 71 69 66 65 65 66 67 68 68 69 69 69 69 69 69 69 70 70 71 71 71 70 70 70 70 70 70 69
70 70 71 72 72 72 72 73 74 76 78 79 79 77 76 74 72 70 69 68 69 70 71 71 71 71 71 71 72 72 72 72 72 72 72 71 70 70 70 70 70 69
76 74 74 75 77 77 77 77 78 79 79 80 81 80 79 78 78 76 75 73 72 72 73 73 74 74 74 74 74 75 75 75 74 74 73 72 71 70 70 70 70 69
81 80 79 79 80 81 82 82 82 82 83 83 83 84 83 82 81 81 79 76 74 74 75 76 76 76 76 77 78 78 78 78 78 77 76 74 73 72 72 72 71 70
80 81 82 82 84 85 85 85 85 85 85 85 85 86 86 85 84 83 81 78 75 75 76 77 78 79 79 80 81 82 83 83 82 81 79 77 76 75 75 74 73 72
82 82 82 82 83 84 86 87 88 88 89 89 89 88 88 88 86 85 84 81 80 78 77 78 78 80 81 83 85 86 87 87 86 84 82 80 79 78 77 77 76 75
90 89 89 88 87 86 86 87 88 90 90 91 92 92 92 91 91 90 88 87 86 84 82 81 80 80 82 84 87 89 90 90 89 88 86 84 82 81 80 79 79 78
92 92 93 93 93 93 92 92 92 92 92 92 93 93 93 93 94 94 94 93 92 91 89 87 85 84 85 85 86 89 91 92 92 91 90 89 87 86 84 83 82 82
94 93 93 93 94 94 94 95 95 95 96 96 95 95 95 95 95 95 95 95 95 95 94 93 91 90 89 89 88 88 90 92 94 94 93 92 91 90 88 87 86 84
98 97 97 96 96 96 97 97 97 97 98 98 98 98 98 98 97 97 96 95 94 93 93 93 93 92 92 91 91 90 91 92 94 94 94 94 93 91 90 89 88 87
104 103 103 102 102 102 102 103 102 102 101 101 101 100 99 99 99 99 99 98 96 94 93 91 90 91 92 91 91 91 92 93 94 94 94 94 94 93 91 90 89 88
107 107 107 107 106 106 107 107 107 106 105 105 104 104 103 101 101 101 101 101 100 98 96 93 90 90 91 92 91 91 93 94 95 95 95 94 94 93 93 92 91 90
106 107 107 107 107 108 107 107 107 106 105 105 105 105 105 105 104 103 103 103 103 102 101 98 94 90 90 91 92 94 95 96 96 96 96 96 95 94 93 92 92 92
101 102 103 105 105 106 105 105 104 104 103 103 103 103 103 104 104 104 103 103 103 103 103 101 98 94 91 91 93 95 97 98 98 98 97 97 97 96 96 95 93 93
97 98 99 101 102 103 103 103 102 101 101 101 101 101 100 100 100 102 102 101 100 99 99 99 98 96 93 92 93 95 98 99 100 100 99 98 98 97 97 96 94 93
94 95 97 98 99 100 101 101 101 100 99 99 99 100 100 100 98 98 99 99 97 95 94 93 93 93 94 94 93 94 97 99 101 101 100 99 99 99 98 97 95 93
91 93 94 95 97 98 99 99 99 99 99 99 99 99 100 101 100 98 96 95 94 94 93 90 88 87 89 92 94 95 96 98 100 101 101 99 96 94 92 93 94 95
Wind_Direction
267 268 267 267 267 268 268 267 266 264 264 263 263 262 260 259 259 259 259 259 259 259 259 258 258 257 256 255 255 254 253 253 253 254 253 253 253 252 253 253 254 255
269 269 268 267 266 266 267 268 268 266 264 262 261 261 261 260 260 259 259 258 258 259 258 258 258 257 256 256 255 255 254 254 254 253 253 252 252 252 252 253 253 254
270 270 270 269 268 267 266 266 266 266 264 262 259 258 259 260 260 260 259 259 258 258 258 257 257 257 257 256 255 255 254 254 253 253 252 252 253 253 252 253 253 255
267 269 269 269 268 267 265 264 263 263 263 261 259 257 257 258 259 259 259 259 259 258 258 257 257 256 256 256 255 255 255 254 253 253 253 253 253 253 253 253 254 255
265 265 265 264 262 261 260 259 259 260 260 259 258 256 256 256 257 258 258 258 258 258 258 257 256 256 256 255 255 255 255 254 254 254 254 253 253 253 253 254 254 256
263 262 261 260 259 257 256 255 255 255 257 258 256 255 254 253 254 255 256 256 257 257 258 258 257 257 256 256 256 256 256 255 255 254 254 254 254 254 254 254 255 256
264 261 258 257 257 256 254 255 255 255 256 256 255 253 252 252 252 253 254 255 257 258 259 259 260 260 260 259 259 259 259 258 258 257 257 256 256 256 256 257 257 258
263 261 258 256 255 254 254 254 255 256 256 256 254 251 250 251 251 252 253 254 256 257 258 259 261 262 262 263 263 262 262 262 262 261 261 260 260 260 260 260 260 260
261 259 258 256 254 253 253 253 253 254 255 255 253 251 249 248 249 251 252 254 255 256 257 258 259 260 261 262 262 262 262 262 262 262 262 263 263 263 263 263 263 263
260 258 257 255 254 252 252 251 251 252 253 253 252 250 247 246 246 248 250 252 254 255 257 257 258 258 259 260 260 260 260 260 261 261 261 262 262 263 263 264 264 264
261 259 256 254 253 252 251 251 250 251 252 252 251 249 247 246 245 245 246 249 251 253 255 256 257 257 258 258 259 260 260 260 260 260 261 261 261 261 261 262 262 263
262 260 257 255 253 251 250 250 250 250 251 252 251 249 247 246 245 245 244 244 246 249 252 254 255 256 257 258 259 259 259 260 260 260 261 261 260 260 259 260 260 260
263 261 259 257 255 254 252 250 248 247 248 249 250 249 248 247 246 245 245 244 244 246 248 250 251 253 255 257 258 258 259 259 260 260 260 259 259 258 258 258 259 260
263 263 262 260 259 258 257 256 253 250 248 248 248 248 247 246 246 245 246 246 247 248 249 249 250 251 253 255 256 257 258 259 259 259 258 257 257 257 257 257 259 260
262 262 262 262 261 261 261 261 261 259 257 255 253 252 250 248 247 245 245 246 247 249 251 252 252 253 253 254 255 256 257 258 258 257 256 255 255 255 256 257 259 261
265 264 262 262 261 261 261 262 263 263 262 261 260 259 258 256 254 252 251 250 250 250 252 253 255 255 255 255 255 256 256 256 256 256 255 255 255 255 256 257 260 262
269 267 265 263 262 261 260 261 261 262 262 263 263 262 262 261 261 260 259 259 258 256 255 255 256 257 257 257 257 257 256 256 255 255 255 256 257 257 258 258 260 261
270 269 268 266 264 263 261 260 260 259 259 260 261 262 262 262 262 262 262 263 262 261 260 260 260 260 259 258 258 257 257 257 256 256 256 257 258 259 259 260 260 261
271 270 269 268 267 266 264 263 262 260 259 258 259 260 261 262 262 261 261 262 262 262 262 262 262 262 261 260 259 258 257 257 257 258 258 259 259 259 260 261 261 262
270 270 269 268 268 267 267 266 266 264 263 261 259 258 258 259 260 260 261 261 261 261 261 261 261 262 261 260 260 259 258 257 258 258 259 260 260 260 261 261 262 262
269 269 268 268 267 267 267 267 267 267 266 264 263 261 259 258 258 258 259 260 261 262 262 261 261 260 259 258 257 257 257 257 257 258 259 259 260 260 261 261 262 263
269 268 268 267 267 266 266 266 266 266 266 265 265 263 262 261 259 258 258 258 259 260 261 262 261 260 257 256 255 255 255 255 255 256 257 258 259 260 260 260 261 262
269 269 268 268 267 266 265 264 264 264 264 263 263 263 263 262 262 261 260 259 258 259 260 260 260 259 256 255 254 253 253 254 254 254 255 256 258 259 259 259 260 260
272 271 270 269 269 268 267 265 264 263 262 261 261 261 260 261 261 261 261 260 259 258 258 258 258 257 256 254 253 253 253 253 253 253 253 254 256 257 258 258 258 258
273 272 272 271 271 270 269 268 267 265 263 262 260 259 258 258 258 259 260 260 260 258 257 256 255 254 254 254 253 253 253 252 252 253 253 253 253 254 255 256 256 256
273 272 272 272 271 271 271 270 269 268 266 264 262 260 258 257 256 256 256 257 259 260 259 257 254 253 252 252 252 252 253 253 252 252 253 253 252 252 252 253 253 254
Height
5692 5692 5691 5691 5690 5689 5689 5688 5688 5688 5688 5688 5687 5687 5687 5686 5686 5686 5685 5685 5685 5685 5684 5683 5683 5682 5682 5682 5682 5683 5684 5685 5685 5686 5687 5687 5687 5687 5687 5687 5687 5687
5682 5682 5682 5682 5682 5681 5680 5680 5679 5679 5678 5678 5678 5678 5677 5677 5677 5677 5677 5677 5677 5676 5676 5676 5675 5675 5675 5675 5675 5675 5676 5676 5677 5678 5678 5679 5679 5680 5680 5679 5679 5680
5673 5673 5673 5673 5673 5673 5672 5672 5670 5669 5668 5668 5668 5668 5668 5668 5668 5668 5669 5668 5668 5668 5668 5668 5668 5668 5667 5667 5667 5667 5668 5668 5669 5669 5669 5670 5671 5672 5672 5672 5672 5673
5664 5664 5664 5664 5664 5664 5664 5663 5661 5660 5660 5659 5658 5658 5658 5659 5659 5660 5660 5660 5660 5660 5659 5659 5659 5659 5659 5659 5659 5659 5660 5660 5661 5660 5661 5663 5664 5664 5664 5664 5665 5665
5654 5654 5654 5654 5654 5655 5654 5654 5652 5651 5651 5650 5649 5649 5649 5649 5650 5650 5651 5651 5651 5651 5651 5651 5651 5651 5651 5651 5651 5651 5652 5652 5652 5652 5653 5655 5655 5656 5656 5656 5657 5658
5644 5643 5644 5643 5644 5644 5644 5643 5642 5641 5641 5640 5640 5640 5639 5639 5640 5641 5641 5642 5642 5642 5642 5642 5642 5643 5643 5643 5643 5643 5644 5644 5644 5644 5645 5647 5647 5647 5648 5648 5649 5650
5633 5633 5633 5633 5633 5633 5633 5633 5632 5631 5631 5630 5631 5630 5630 5630 5631 5631 5631 5632 5633 5633 5634 5634 5634 5635 5635 5635 5635 5636 5636 5636 5636 5636 5637 5638 5639 5639 5640 5640 5641 5642
5622 5623 5623 5622 5622 5622 5622 5622 5622 5621 5621 5621 5621 5620 5620 5621 5621 5621 5621 5622 5623 5624 5624 5625 5625 5626 5626 5626 5627 5628 5628 5628 5628 5629 5629 5630 5631 5631 5632 5632 5632 5633
5612 5612 5612 5612 5612 5612 5611 5611 5611 5611 5610 5610 5610 5610 5610 5611 5611 5612 5612 5612 5613 5614 5614 5615 5616 5616 5617 5617 5618 5618 5619 5619 5619 5620 5620 5621 5622 5623 5623 5622 5623 5624
5602 5601 5601 5601 5601 5601 5600 5600 5600 5600 5599 5599 5599 5599 5599 5599 5600 5602 5602 5603 5603 5604 5604 5604 5605 5606 5606 5607 5608 5608 5609 5609 5610 5610 5611 5612 5613 5614 5613 5613 5613 5614
5590 5590 5590 5589 5589 5589 5589 5589 5589 5589 5588 5588 5588 5587 5587 5588 5588 5589 5591 5592 5593 5593 5593 5594 5594 5595 5595 5596 5597 5597 5598 5599 5599 5600 5601 5602 5603 5604 5604 5604 5604 5606
5577 5578 5578 5577 5577 5577 5577 5577 5577 5577 5577 5576 5576 5576 5576 5576 5576 5577 5578 5579 5580 5581 5582 5583 5584 5584 5585 5586 5586 5586 5587 5587 5588 5589 5590 5591 5593 5593 5594 5594 5595 5596
5564 5564 5564 5565 5565 5564 5564 5564 5564 5564 5564 5564 5564 5565 5565 5565 5565 5565 5565 5566 5567 5568 5570 5571 5572 5573 5574 5574 5575 5575 5575 5576 5576 5577 5578 5579 5581 5582 5583 5583 5585 5586
5551 5551 5551 5551 5551 5551 5550 5550 5550 5551 5551 5551 5551 5552 5552 5553 5553 5554 5554 5555 5556 5557 5558 5559 5560 5561 5562 5563 5563 5563 5563 5564 5564 5565 5566 5567 5569 5570 5571 5572 5574 5575
5538 5538 5538 5537 5537 5537 5537 5536 5536 5536 5536 5537 5537 5537 5538 5539 5540 5541 5542 5543 5544 5545 5546 5548 5549 5550 5550 5550 5550 5551 5551 5552 5551 5552 5553 5555 5557 5559 5559 5560 5562 5564
5522 5523 5524 5524 5523 5524 5523 5523 5523 5522 5522 5522 5522 5522 5523 5523 5524 5525 5527 5528 5530 5531 5533 5534 5537 5538 5538 5537 5538 5538 5538 5539 5539 5539 5540 5542 5544 5547 5548 5549 5551 5552
5505 5506 5507 5508 5508 5508 5508 5509 5508 5508 5508 5507 5507 5507 5508 5508 5509 5509 5510 5511 5513 5516 5518 5519 5522 5524 5524 5524 5526 5526 5525 5526 5526 5527 5528 5529 5532 5535 5536 5538 5539 5541
5489 5490 5491 5491 5491 5492 5492 5493 5493 5493 5493 5493 5493 5493 5493 5494 5495 5495 5496 5496 5497 5500 5502 5504 5507 5509 5508 5510 5512 5512 5512 5513 5513 5514 5515 5518 5521 5523 5525 5526 5528 5530
5472 5473 5474 5474 5474 5474 5475 5476 5477 5477 5477 5477 5477 5478 5478 5478 5479 5480 5482 5483 5483 5486 5488 5490 5493 5493 5493 5495 5497 5498 5498 5499 5499 5501 5503 5506 5509 5511 5513 5515 5517 5519
5456 5456 5457 5457 5457 5457 5457 5458 5459 5460 5460 5459 5460 5462 5463 5463 5464 5464 5465 5467 5468 5471 5473 5477 5480 5479 5478 5480 5482 5483 5484 5484 5485 5487 5490 5493 5497 5499 5501 5503 5506 5508
5439 5439 5439 5440 5440 5440 5440 5440 5441 5441 5442 5441 5441 5443 5445 5447 5449 5449 5450 5451 5452 5454 5457 5462 5466 5466 5465 5466 5467 5469 5469 5470 5471 5473 5476 5479 5483 5486 5489 5492 5494 5496
5423 5422 5421 5421 5421 5421 5422 5423 5423 5423 5424 5423 5423 5425 5426 5428 5431 5433 5434 5436 5437 5438 5440 5445 5450 5452 5451 5452 5453 5454 5455 5456 5458 5461 5463 5466 5470 5473 5476 5479 5481 5483
5407 5405 5404 5403 5402 5402 5403 5404 5405 5406 5406 5406 5406 5407 5408 5409 5411 5414 5417 5419 5421 5423 5424 5428 5434 5437 5437 5437 5439 5439 5440 5442 5444 5447 5450 5454 5457 5460 5462 5465 5468 5470
5391 5389 5387 5386 5384 5384 5384 5385 5386 5387 5388 5388 5388 5390 5392 5392 5393 5394 5398 5402 5405 5407 5409 5412 5417 5421 5422 5422 5424 5425 5424 5427 5430 5432 5437 5441 5445 5447 5448 5451 5455 5457
5376 5373 5371 5370 5368 5367 5366 5366 5367 5368 5369 5370 5370 5372 5374 5376 5376 5377 5380 5385 5387 5390 5393 5396 5400 5405 5406 5406 5409 5410 5410 5412 5415 5418 5423 5428 5431 5433 5434 5437 5441 5443
5362 5359 5357 5355 5352 5351 5350 5349 5350 5350 5350 5351 5352 5353 5355 5358 5360 5361 5364 5369 5371 5372 5375 5379 5384 5389 5391 5391 5392 5394 5395 5397 5400 5403 5409 5413 5415 5417 5420 5423 5426 5429